Regional Weather Roundup
Issued by NWS San Angelo, TX

Home | Current Version | Previous Version | Text Only | Print | Product List | Glossary On
Versions: 1 2 3 4 5 6 7 8 9 10 11 12 13 14 15 16 17 18 19 20 21 22 23 24 25 26 27 28 29 30 31 32 33 34 35 36 37 38 39 40 41 42 43 44 45 46 47 48 49 50
000
ASUS44 KSJT 271502
RWRSJT
WEST CENTRAL TEXAS REGIONAL WEATHER ROUNDUP
NATIONAL WEATHER SERVICE SAN ANGELO TX
900 AM CST SAT DEC 27 2014

NOTE: "FAIR" INDICATES FEW OR NO CLOUDS BELOW 12,000 FEET WITH NO
SIGNIFICANT WEATHER AND/OR OBSTRUCTIONS TO VISIBILITY.

TXZ049-054-064>066-071>073-076>078-098-099-113-114-127-128-139-140-
154-155-168>170-271600
...LOCATIONS ACROSS WEST CENTRAL TEXAS...

CITY           SKY/WX    TMP DP  RH WIND       PRES   REMARKS
SAN ANGELO     CLOUDY    40  33  76 NE14      30.23R WCI  32
ABILENE        RAIN      33  32  96 N14       30.25R FOG     WCI  23
DYESS AFB      LGT RAIN  33  30  89 N16       30.25S WCI  22
JUNCTION       CLOUDY    44  33  65 NE16      30.18R WCI  37
SWEETWATER     NOT AVBL
BROWNWOOD      NOT AVBL
COLEMAN        LGT RAIN  37  35  92 N14       30.23R WCI  28
SONORA         NOT AVBL
OZONA          NOT AVBL
BRADY          CLOUDY    41  34  75 N15       30.19R WCI  33
$$

TEXAS PANHANDLE/OKLAHOMA PANHANDLE

CITY           SKY/WX    TMP DP  RH WIND       PRES   REMARKS
AMARILLO       MOSUNNY   20  16  84 N13       30.28R WCI   7
BORGER         MOSUNNY   21  15  78 NW5       30.31R WCI  15
CANADIAN       PTSUNNY   26  19  77 N8        30.33R WCI  17
DALHART        PTCLDY    15  10  80 NW5       30.27R WCI   8
DUMAS          MOSUNNY   16  12  86 NW8       30.27S WCI   5
GUYMON         NOT AVBL
HEREFORD       PTSUNNY   23  20  88 N6        30.28R WCI  16
PAMPA          MOSUNNY   19  17  90 NW8       30.29R WCI   9
PERRYTON         N/A     21  17  86 NW10      30.29R WCI   9
$$

SOUTHERN PANHANDLE/SOUTH PLAINS/ROLLING PLAINS

CITY           SKY/WX    TMP DP  RH WIND       PRES   REMARKS
LUBBOCK        CLOUDY    28  24  85 N10       30.24S WCI  19
SNYDER         NOT AVBL
CHILDRESS      CLOUDY    31  22  69 N12       30.33R WCI  22
SEMINOLE       CLOUDY    32  31  96 N10       30.26R WCI  23
$$

PERMIAN BASIN

CITY           SKY/WX    TMP DP  RH WIND       PRES   REMARKS
MIDLAND        CLOUDY    40  33  76 NE16      30.22R WCI  31
ODESSA         CLOUDY    39  32  76 NE13      30.23R WCI  31
WINK           LGT RAIN  38  34  85 N9        30.23R WCI  31
$$

FAR WEST/SOUTHWEST MOUNTAINS/TRANS PECOS

CITY           SKY/WX    TMP DP  RH WIND       PRES   REMARKS
ALPINE         PTSUNNY   32  31  95 E3        30.25R
DRYDEN           N/A     46  32  58 N16G22    30.17R WCI  39
EL PASO        CLOUDY    36  33  89 CALM      30.18R
FORT STOCKTON  CLOUDY    37  32  82 NW6       30.23R WCI  32
GUADALUPE PASS NOT AVBL
MARFA          PTSUNNY   37  30  75 NE20      30.16R WCI  27
PECOS          DRIZZLE   40  36  84 NW3       30.26R
$$

DALLAS/FORT WORTH METROPLEX

CITY           SKY/WX    TMP DP  RH WIND       PRES   REMARKS
DFW AIRPORT    CLOUDY    41  33  73 N22       30.21R WCI  31
FTW MEACHAM    CLOUDY    41  33  73 N16       30.22R WCI  33
DAL-EXECUTIVE  CLOUDY    43  33  68 N22G30    30.20R WCI  34
GRAND PRAIRIE  CLOUDY    43  34  70 N23G30    30.23R WCI  33
ADDISON        NOT AVBL
MESQUITE       NOT AVBL
LANCASTER      CLOUDY    42  35  76 N14G25    30.22R WCI  34
$$

NORTH CENTRAL TEXAS

CITY           SKY/WX    TMP DP  RH WIND       PRES   REMARKS
SHRMAN/DENISON CLOUDY    38  36  93 N16G22    30.27R WCI  29
GAINESVILLE    NOT AVBL
BRIDGEPORT     CLOUDY    39  32  76 N15       30.28R WCI  30
DENTON         CLOUDY    38  32  79 N21G28    30.23F WCI  28
WAXAHACHIE     CLOUDY    42  37  83 N22G29    30.20R WCI  33
GRANBURY       CLOUDY    41  33  73 N13G20    30.25R WCI  34
$$

WESTERN NORTH TEXAS

CITY           SKY/WX    TMP DP  RH WIND       PRES   REMARKS
WICHITA FALLS  SNOW      31  30  96 N20       30.28F VSB 1/2 WCI  19
VERNON         CLOUDY    33  27  80 N10       30.33R WCI  24
BRECKENRIDGE   DRIZZLE   37  34  92 N14G22    30.26R WCI  28
COMANCHE       CLOUDY    40  32  75 N14G23    30.21S WCI  32
$$

CENTRAL AND SOUTH CENTRAL TEXAS

CITY           SKY/WX    TMP DP  RH WIND       PRES   REMARKS
AUSTIN/BERGSTM LGT RAIN  49  46  90 N21       30.11R FOG
WACO           CLOUDY    46  35  65 N23G32    30.18R WCI  38
HILLSBORO      NOT AVBL
TEMPLE         CLOUDY    46  34  61 N18G31    30.15R WCI  39
KILLEEN-GRAY   CLOUDY    46  35  67 N30G38    30.14R WCI  36
FORT HOOD      CLOUDY    47  35  63 N22G30    30.14R WCI  39
GEORGETOWN     CLOUDY    48  39  71 N12       30.13R
LAGO VISTA     CLOUDY    47  40  75 N20G28    30.11R
SAN MARCOS     RAIN      55  52  88 N22G33    30.06R
NEW BRAUNFELS  LGT RAIN  65  62  90 NE12      30.02R FOG
RANDOLPH AFB   DRIZZLE   64  62  95 N7        30.02R FOG
SAN ANTONIO    CLOUDY    65  62  90 N7        30.02S FOG
STINSON        CLOUDY    65  63  93 NE6       30.00R FOG
PLEASANTON     NOT AVBL
LA GRANGE      NOT AVBL
GIDDINGS       LGT RAIN  52  49  90 N18G26    30.11R
$$

EAST TEXAS

CITY           SKY/WX    TMP DP  RH WIND       PRES   REMARKS
PARIS          CLOUDY    43  37  81 N23       30.18R WCI  33
CLARKSVILLE    NOT AVBL
TYLER          CLOUDY    46  44  93 N16G24    30.12R WCI  39
LONGVIEW       LGT RAIN  61  60  97 SE6       30.03S FOG
PALESTINE      CLOUDY    48  48 100 NW10G17   30.11R
NACOGDOCHES      N/A    N/A N/A N/A MISG        N/A
$$

TEXAS HILL COUNTRY AND EDWARDS PLATEAU

CITY           SKY/WX    TMP DP  RH WIND       PRES   REMARKS
LLANO          NOT AVBL
HORSESHOE BAY  CLOUDY    47  41  80 N10       30.15R
KERRVILLE      CLOUDY    46  40  79 N13G18    30.12R
FREDERICKSBRG  NOT AVBL
ROCKSPRINGS    NOT AVBL
HONDO          CLOUDY    63  61  93 NE9       30.04R
UVALDE         CLOUDY    56  55  98 N15G22    30.04R FOG
DEL RIO        CLOUDY    52  35  52 NW16G23   30.13R
$$

SOUTHEAST TEXAS

CITY           SKY/WX    TMP DP  RH WIND       PRES   REMARKS
COLLEGE STN    TSTM      52  51  97 NW17G25   30.05R FOG
CALDWELL       NOT AVBL
CROCKETT       NOT AVBL
BRENHAM        TSTM      70  69  96 W15       30.04R VSB 1/2
HUNTSVILLE     CLOUDY    69  67  93 S7        30.04R FOG
CONROE         CLOUDY    68  67  96 SE7       30.04S FOG
HOUSTON BUSH   CLOUDY    70  68  93 CALM      30.03R
HOUSTON HOBBY  PTSUNNY   71  69  93 S7        30.02R
PERLAND        CLOUDY    73  70  90 S9        30.03S
WHARTON        CLOUDY    70  69  95 SE5       30.04R FOG
$$

THE UPPER TEXAS COAST

CITY           SKY/WX    TMP DP  RH WIND       PRES   REMARKS
ORANGE         FOG       66  66 100 SE5       30.07R VSB 1/4
PORT ARTHUR    FOG       67  66  97 SE5       30.05R VSB 1/2
GALVESTON      PTSUNNY   68  68 100 SE13      30.03S
ANGLETON       PTSUNNY   72  70  93 S12       30.03R
BAY CITY         N/A     73  72  98 SE9       30.02R
$$

TEXAS COASTAL BEND, RIO GRANDE PLAINS DEEP SOUTH TEXAS

CITY           SKY/WX    TMP DP  RH WIND       PRES   REMARKS
VICTORIA       CLOUDY    71  69  93 CALM      30.02R FOG
BEEVILLE       DRIZZLE   69  69  99 S9        30.00R
ROCKPORT       CLOUDY    70  68  93 SE8       29.99R FOG
PORT ARANSAS   CLOUDY    68  67  98 SE12      29.98R FOG
PORT LAVACA    NOT AVBL
CORPUS CHRISTI PTSUNNY   72  69  90 S14G23    29.98R FOG
KINGSVILLE NAS CLOUDY    72  70  94 S12       29.98R
COTULLA        NOT AVBL
LAREDO         NOT AVBL
BROWNSVILLE    MOSUNNY   72  69  90 S10       29.99R
PORT ISABEL    MOSUNNY   71  69  93 S13       29.98R FOG
HEBBRONVILLE   NOT AVBL
MCALLEN        MOSUNNY   69  66  90 S9        29.97R
WESLACO        NOT AVBL
FALFURRIAS     CLOUDY    73  66  80 S14       29.98R
EDINBURG       SUNNY     72  66  83 S8        29.97R
$$


USA.gov is the U.S. government's official web portal to all federal, state and local government web resources and services.